Time,TemperatureF,DewpointF,PressureIn,WindDirection,WindDirectionDegrees,WindSpeedMPH,WindSpeedGustMPH,Humidity,HourlyPrecipIn,Conditions,Clouds,dailyrainin,SoftwareType,DateUTC
2013-05-05 00:02:00,59.0,38.0,-100.00,ENE,70,5.0,8.0,45,0.00,,,-99.99,,2013-05-05 04:02:00,
2013-05-05 00:12:00,59.0,38.0,-100.00,NE,45,6.0,9.0,44,0.00,,,-99.99,,2013-05-05 04:12:00,
2013-05-05 00:23:00,58.0,38.0,-100.00,NNE,25,4.0,8.0,46,0.00,,,-99.99,,2013-05-05 04:23:00,
2013-05-05 00:33:00,58.0,38.0,-100.00,ENE,60,6.0,10.0,46,0.00,,,-99.99,,2013-05-05 04:33:00,
2013-05-05 00:43:00,58.0,38.0,-100.00,East,85,4.0,11.0,47,0.00,,,-99.99,,2013-05-05 04:43:00,
2013-05-05 00:52:00,58.0,38.0,-100.00,East,85,4.0,11.0,47,0.00,,,-99.99,,2013-05-05 04:52:00,
2013-05-05 01:02:00,58.0,39.0,-100.00,ENE,75,3.0,9.0,48,0.00,,,-99.99,,2013-05-05 05:02:00,
2013-05-05 01:12:00,58.0,39.0,-100.00,ENE,75,3.0,9.0,48,0.00,,,-99.99,,2013-05-05 05:12:00,
2013-05-05 01:22:00,57.0,39.0,-100.00,ENE,75,4.0,9.0,50,0.00,,,-99.99,,2013-05-05 05:22:00,
2013-05-05 01:32:00,57.0,39.0,-100.00,ENE,60,4.0,9.0,50,0.00,,,-99.99,,2013-05-05 05:32:00,
2013-05-05 01:42:00,57.0,39.0,-100.00,ENE,75,4.0,9.0,51,0.00,,,-99.99,,2013-05-05 05:42:00,
2013-05-05 01:52:00,56.0,39.0,-100.00,ENE,60,4.0,11.0,52,0.00,,,-99.99,,2013-05-05 05:52:00,
2013-05-05 02:01:00,57.0,40.0,-100.00,ENE,60,7.0,11.0,52,0.00,,,-99.99,,2013-05-05 06:01:00,
2013-05-05 02:12:00,57.0,40.0,-100.00,ENE,75,6.0,12.0,52,0.00,,,-99.99,,2013-05-05 06:12:00,
2013-05-05 02:21:00,57.0,40.0,-100.00,ENE,75,7.0,11.0,53,0.00,,,-99.99,,2013-05-05 06:21:00,
2013-05-05 02:32:00,56.0,40.0,-100.00,East,90,7.0,11.0,53,0.00,,,-99.99,,2013-05-05 06:32:00,
2013-05-05 02:42:00,56.0,40.0,-100.00,ENE,75,7.0,11.0,53,0.00,,,-99.99,,2013-05-05 06:42:00,
2013-05-05 02:52:00,56.0,40.0,-100.00,East,80,6.0,11.0,54,0.00,,,-99.99,,2013-05-05 06:52:00,
2013-05-05 03:01:00,56.0,40.0,-100.00,ENE,75,7.0,12.0,54,0.00,,,-99.99,,2013-05-05 07:01:00,
2013-05-05 03:11:00,56.0,40.0,-100.00,East,80,7.0,15.0,54,0.00,,,-99.99,,2013-05-05 07:11:00,
2013-05-05 03:22:00,57.0,40.0,-100.00,East,100,10.0,16.0,53,0.00,,,-99.99,,2013-05-05 07:22:00,
2013-05-05 03:32:00,56.0,40.0,-100.00,East,100,8.0,15.0,54,0.00,,,-99.99,,2013-05-05 07:32:00,
2013-05-05 03:42:00,56.0,40.0,-100.00,East,85,9.0,14.0,54,0.00,,,-99.99,,2013-05-05 07:42:00,
2013-05-05 03:52:00,56.0,40.0,-100.00,East,90,9.0,14.0,55,0.00,,,-99.99,,2013-05-05 07:52:00,
2013-05-05 04:02:00,56.0,40.0,-100.00,East,90,8.0,12.0,55,0.00,,,-99.99,,2013-05-05 08:02:00,
2013-05-05 04:11:00,56.0,40.0,-100.00,East,90,8.0,12.0,55,0.00,,,-99.99,,2013-05-05 08:11:00,
2013-05-05 04:21:00,56.0,40.0,-100.00,East,90,8.0,12.0,55,0.00,,,-99.99,,2013-05-05 08:21:00,
2013-05-05 04:32:00,56.0,40.0,-100.00,East,95,11.0,14.0,56,0.00,,,-99.99,,2013-05-05 08:32:00,
2013-05-05 04:42:00,55.0,40.0,-100.00,East,90,9.0,15.0,57,0.00,,,-99.99,,2013-05-05 08:42:00,
2013-05-05 04:53:00,55.0,40.0,-100.00,East,90,9.0,15.0,57,0.00,,,-99.99,,2013-05-05 08:53:00,
2013-05-05 05:01:00,55.0,40.0,-100.00,East,90,9.0,15.0,57,0.00,,,-99.99,,2013-05-05 09:01:00,
2013-05-05 05:11:00,54.0,41.0,-100.00,East,100,7.0,13.0,59,0.00,,,-99.99,,2013-05-05 09:11:00,
2013-05-05 05:21:00,54.0,41.0,-100.00,East,95,7.0,14.0,59,0.00,,,-99.99,,2013-05-05 09:21:00,
2013-05-05 05:33:00,54.0,41.0,-100.00,East,95,7.0,14.0,59,0.00,,,-99.99,,2013-05-05 09:33:00,
2013-05-05 05:42:00,54.0,41.0,-100.00,East,85,9.0,14.0,60,0.00,,,-99.99,,2013-05-05 09:42:00,
2013-05-05 05:52:00,54.0,41.0,-100.00,East,85,9.0,14.0,60,0.00,,,-99.99,,2013-05-05 09:52:00,
2013-05-05 06:03:00,53.0,41.0,-100.00,East,100,7.0,13.0,62,0.00,,,-99.99,,2013-05-05 10:03:00,
2013-05-05 06:12:00,53.0,41.0,-100.00,East,80,7.0,12.0,62,0.00,,,-99.99,,2013-05-05 10:12:00,
2013-05-05 06:22:00,53.0,41.0,-100.00,ENE,70,8.0,12.0,63,0.00,,,-99.99,,2013-05-05 10:22:00,
2013-05-05 06:32:00,53.0,41.0,-100.00,ENE,70,8.0,12.0,63,0.00,,,-99.99,,2013-05-05 10:32:00,
2013-05-05 06:42:00,53.0,41.0,-100.00,ENE,70,6.0,16.0,64,0.00,,,-99.99,,2013-05-05 10:42:00,
2013-05-05 06:52:00,52.0,41.0,-100.00,East,85,5.0,10.0,65,0.00,,,-99.99,,2013-05-05 10:52:00,
2013-05-05 07:01:00,52.0,41.0,-100.00,East,80,4.0,10.0,65,0.00,,,-99.99,,2013-05-05 11:01:00,
2013-05-05 07:12:00,52.0,41.0,-100.00,ENE,65,4.0,9.0,66,0.00,,,-99.99,,2013-05-05 11:12:00,
2013-05-05 07:22:00,52.0,42.0,-100.00,NE,40,6.0,11.0,66,0.00,,,-99.99,,2013-05-05 11:22:00,
2013-05-05 07:32:00,53.0,41.0,-100.00,ENE,70,6.0,11.0,65,0.00,,,-99.99,,2013-05-05 11:32:00,
2013-05-05 07:42:00,53.0,42.0,-100.00,East,80,6.0,11.0,66,0.00,,,-99.99,,2013-05-05 11:42:00,
2013-05-05 07:52:00,53.0,42.0,-100.00,NE,40,6.0,12.0,65,0.00,,,-99.99,,2013-05-05 11:52:00,
2013-05-05 08:02:00,53.0,42.0,-100.00,NE,55,5.0,12.0,65,0.00,,,-99.99,,2013-05-05 12:02:00,
2013-05-05 08:11:00,54.0,42.0,-100.00,ENE,75,7.0,12.0,62,0.00,,,-99.99,,2013-05-05 12:11:00,
2013-05-05 08:21:00,54.0,42.0,-100.00,East,80,7.0,16.0,63,0.00,,,-99.99,,2013-05-05 12:21:00,
2013-05-05 08:32:00,54.0,42.0,-100.00,NE,50,8.0,12.0,61,0.00,,,-99.99,,2013-05-05 12:32:00,
2013-05-05 08:42:00,54.0,42.0,-100.00,NE,50,8.0,12.0,61,0.00,,,-99.99,,2013-05-05 12:42:00,
2013-05-05 08:52:00,55.0,42.0,-100.00,ENE,65,7.0,12.0,60,0.00,,,-99.99,,2013-05-05 12:52:00,
2013-05-05 09:01:00,54.0,42.0,-100.00,East,80,7.0,14.0,63,0.00,,,-99.99,,2013-05-05 13:01:00,
2013-05-05 09:11:00,56.0,42.0,-100.00,East,95,8.0,16.0,59,0.00,,,-99.99,,2013-05-05 13:11:00,
2013-05-05 09:21:00,56.0,42.0,-100.00,ENE,70,6.0,13.0,58,0.00,,,-99.99,,2013-05-05 13:21:00,
2013-05-05 09:32:00,56.0,41.0,-100.00,East,80,5.0,12.0,58,0.00,,,-99.99,,2013-05-05 13:32:00,
2013-05-05 09:42:00,57.0,42.0,-100.00,NE,45,6.0,12.0,57,0.00,,,-99.99,,2013-05-05 13:42:00,
2013-05-05 09:52:00,59.0,42.0,-100.00,NE,55,7.0,14.0,53,0.00,,,-99.99,,2013-05-05 13:52:00,
2013-05-05 10:02:00,59.0,41.0,-100.00,ENE,60,10.0,16.0,51,0.00,,,-99.99,,2013-05-05 14:02:00,
2013-05-05 10:11:00,59.0,42.0,-100.00,ENE,75,9.0,14.0,51,0.00,,,-99.99,,2013-05-05 14:11:00,
2013-05-05 10:21:00,60.0,41.0,-100.00,NE,50,8.0,17.0,49,0.00,,,-99.99,,2013-05-05 14:21:00,
2013-05-05 10:32:00,61.0,42.0,-100.00,ENE,65,7.0,14.0,49,0.00,,,-99.99,,2013-05-05 14:32:00,
2013-05-05 10:42:00,61.0,42.0,-100.00,ENE,65,7.0,14.0,49,0.00,,,-99.99,,2013-05-05 14:42:00,
2013-05-05 10:52:00,61.0,38.0,-100.00,ENE,75,11.0,15.0,43,0.00,,,-99.99,,2013-05-05 14:52:00,
2013-05-05 11:02:00,62.0,39.0,-100.00,East,80,7.0,14.0,43,0.00,,,-99.99,,2013-05-05 15:02:00,
2013-05-05 11:11:00,62.0,39.0,-100.00,NE,55,6.0,14.0,42,0.00,,,-99.99,,2013-05-05 15:11:00,
2013-05-05 11:21:00,62.0,37.0,-100.00,ENE,60,7.0,14.0,39,0.00,,,-99.99,,2013-05-05 15:21:00,
2013-05-05 11:33:00,62.0,37.0,-100.00,ENE,60,7.0,14.0,39,0.00,,,-99.99,,2013-05-05 15:33:00,
2013-05-05 11:43:00,62.0,37.0,-100.00,ENE,60,7.0,14.0,39,0.00,,,-99.99,,2013-05-05 15:43:00,
2013-05-05 11:53:00,64.0,38.0,-100.00,East,80,6.0,18.0,37,0.00,,,-99.99,,2013-05-05 15:53:00,
2013-05-05 12:03:00,65.0,38.0,-100.00,ENE,65,7.0,12.0,36,0.00,,,-99.99,,2013-05-05 16:03:00,
2013-05-05 12:12:00,65.0,39.0,-100.00,ENE,65,8.0,14.0,37,0.00,,,-99.99,,2013-05-05 16:12:00,
2013-05-05 12:23:00,65.0,36.0,-100.00,NE,55,9.0,16.0,33,0.00,,,-99.99,,2013-05-05 16:23:00,
2013-05-05 12:32:00,65.0,37.0,-100.00,North,10,6.0,15.0,34,0.00,,,-99.99,,2013-05-05 16:32:00,
2013-05-05 12:42:00,66.0,37.0,-100.00,ENE,60,7.0,14.0,34,0.00,,,-99.99,,2013-05-05 16:42:00,
2013-05-05 12:52:00,66.0,37.0,-100.00,ENE,60,7.0,14.0,34,0.00,,,-99.99,,2013-05-05 16:52:00,
2013-05-05 13:02:00,65.0,36.0,-100.00,NE,40,7.0,12.0,33,0.00,,,-99.99,,2013-05-05 17:02:00,
2013-05-05 13:12:00,67.0,36.0,-100.00,NE,55,6.0,12.0,32,0.00,,,-99.99,,2013-05-05 17:12:00,
2013-05-05 13:23:00,67.0,35.0,-100.00,NE,55,6.0,15.0,29,0.00,,,-99.99,,2013-05-05 17:23:00,
2013-05-05 13:32:00,67.0,36.0,-100.00,East,85,7.0,14.0,32,0.00,,,-99.99,,2013-05-05 17:32:00,
2013-05-05 13:42:00,66.0,36.0,-100.00,East,95,7.0,14.0,32,0.00,,,-99.99,,2013-05-05 17:42:00,
2013-05-05 13:52:00,66.0,37.0,-100.00,East,85,9.0,16.0,33,0.00,,,-99.99,,2013-05-05 17:52:00,
2013-05-05 14:01:00,68.0,36.0,-100.00,East,100,7.0,12.0,31,0.00,,,-99.99,,2013-05-05 18:01:00,
2013-05-05 14:12:00,69.0,39.0,-100.00,East,100,6.0,10.0,33,0.00,,,-99.99,,2013-05-05 18:12:00,
2013-05-05 14:21:00,67.0,40.0,-100.00,East,85,6.0,11.0,37,0.00,,,-99.99,,2013-05-05 18:21:00,
2013-05-05 14:32:00,67.0,38.0,-100.00,ENE,75,6.0,12.0,35,0.00,,,-99.99,,2013-05-05 18:32:00,
2013-05-05 14:42:00,67.0,38.0,-100.00,East,90,3.0,12.0,35,0.00,,,-99.99,,2013-05-05 18:42:00,
2013-05-05 14:52:00,67.0,37.0,-100.00,ENE,75,6.0,10.0,33,0.00,,,-99.99,,2013-05-05 18:52:00,
2013-05-05 15:01:00,67.0,38.0,-100.00,East,100,7.0,11.0,34,0.00,,,-99.99,,2013-05-05 19:01:00,
2013-05-05 15:11:00,67.0,38.0,-100.00,East,80,7.0,10.0,34,0.00,,,-99.99,,2013-05-05 19:11:00,
2013-05-05 15:21:00,66.0,37.0,-100.00,East,95,7.0,11.0,33,0.00,,,-99.99,,2013-05-05 19:21:00,
2013-05-05 15:32:00,66.0,38.0,-100.00,East,85,2.0,9.0,35,0.00,,,-99.99,,2013-05-05 19:32:00,
2013-05-05 15:42:00,66.0,38.0,-100.00,East,80,1.0,8.0,35,0.00,,,-99.99,,2013-05-05 19:42:00,
2013-05-05 15:52:00,66.0,39.0,-100.00,East,100,3.0,6.0,36,0.00,,,-99.99,,2013-05-05 19:52:00,
2013-05-05 16:01:00,66.0,38.0,-100.00,East,80,2.0,6.0,35,0.00,,,-99.99,,2013-05-05 20:01:00,
2013-05-05 16:11:00,66.0,38.0,-100.00,East,80,2.0,6.0,35,0.00,,,-99.99,,2013-05-05 20:11:00,
2013-05-05 16:21:00,67.0,38.0,-100.00,ENE,60,2.0,4.0,35,0.00,,,-99.99,,2013-05-05 20:21:00,
2013-05-05 16:32:00,67.0,38.0,-100.00,ENE,60,2.0,4.0,35,0.00,,,-99.99,,2013-05-05 20:32:00,
2013-05-05 16:42:00,67.0,37.0,-100.00,East,95,4.0,6.0,33,0.00,,,-99.99,,2013-05-05 20:42:00,
2013-05-05 16:52:00,67.0,39.0,-100.00,East,85,2.0,6.0,36,0.00,,,-99.99,,2013-05-05 20:52:00,
2013-05-05 17:02:00,67.0,38.0,-100.00,ESE,105,4.0,6.0,34,0.00,,,-99.99,,2013-05-05 21:02:00,
2013-05-05 17:11:00,67.0,38.0,-100.00,NNE,30,1.0,3.0,34,0.00,,,-99.99,,2013-05-05 21:11:00,
2013-05-05 17:21:00,67.0,38.0,-100.00,NW,305,0.0,2.0,34,0.00,,,-99.99,,2013-05-05 21:21:00,
2013-05-05 17:33:00,67.0,38.0,-100.00,NW,305,0.0,2.0,34,0.00,,,-99.99,,2013-05-05 21:33:00,
2013-05-05 17:42:00,67.0,38.0,-100.00,NE,45,2.0,4.0,34,0.00,,,-99.99,,2013-05-05 21:42:00,
2013-05-05 17:53:00,67.0,41.0,-100.00,ENE,65,1.0,5.0,37,0.00,,,-99.99,,2013-05-05 21:53:00,
2013-05-05 18:02:00,67.0,41.0,-100.00,NNE,20,2.0,4.0,37,0.00,,,-99.99,,2013-05-05 22:02:00,
2013-05-05 18:12:00,68.0,38.0,-100.00,NNE,25,0.0,4.0,34,0.00,,,-99.99,,2013-05-05 22:12:00,
2013-05-05 18:22:00,68.0,38.0,-100.00,NNE,20,1.0,6.0,33,0.00,,,-99.99,,2013-05-05 22:22:00,
2013-05-05 18:33:00,68.0,40.0,-100.00,NNE,20,1.0,4.0,36,0.00,,,-99.99,,2013-05-05 22:33:00,
2013-05-05 18:42:00,68.0,38.0,-100.00,NE,35,3.0,6.0,33,0.00,,,-99.99,,2013-05-05 22:42:00,
2013-05-05 18:52:00,68.0,40.0,-100.00,NE,50,1.0,4.0,35,0.00,,,-99.99,,2013-05-05 22:52:00,
2013-05-05 19:02:00,68.0,40.0,-100.00,NNE,15,2.0,4.0,35,0.00,,,-99.99,,2013-05-05 23:02:00,
2013-05-05 19:11:00,68.0,38.0,-100.00,NNE,15,1.0,4.0,33,0.00,,,-99.99,,2013-05-05 23:11:00,
2013-05-05 19:21:00,68.0,39.0,-100.00,North,0,1.0,4.0,34,0.00,,,-99.99,,2013-05-05 23:21:00,
2013-05-05 19:32:00,67.0,39.0,-100.00,NNE,25,1.0,4.0,35,0.00,,,-99.99,,2013-05-05 23:32:00,
2013-05-05 19:42:00,67.0,40.0,-100.00,North,0,1.0,3.0,36,0.00,,,-99.99,,2013-05-05 23:42:00,
2013-05-05 19:52:00,67.0,40.0,-100.00,NE,40,0.0,4.0,37,0.00,,,-99.99,,2013-05-05 23:52:00,
2013-05-05 20:01:00,67.0,40.0,-100.00,NE,40,0.0,4.0,37,0.00,,,-99.99,,2013-05-06 00:01:00,
2013-05-05 20:11:00,65.0,42.0,-100.00,NE,35,0.0,0.0,42,0.00,,,-99.99,,2013-05-06 00:11:00,
2013-05-05 20:21:00,64.0,44.0,-100.00,NE,50,0.0,1.0,47,0.00,,,-99.99,,2013-05-06 00:21:00,
2013-05-05 20:32:00,64.0,44.0,-100.00,NE,40,0.0,0.0,49,0.00,,,-99.99,,2013-05-06 00:32:00,
2013-05-05 20:42:00,63.0,43.0,-100.00,NNE,20,0.0,2.0,47,0.00,,,-99.99,,2013-05-06 00:42:00,
2013-05-05 20:51:00,63.0,40.0,-100.00,NNW,340,0.0,2.0,42,0.00,,,-99.99,,2013-05-06 00:51:00,
2013-05-05 21:01:00,62.0,40.0,-100.00,NNW,335,0.0,1.0,43,0.00,,,-99.99,,2013-05-06 01:01:00,
2013-05-05 21:11:00,62.0,40.0,-100.00,North,5,0.0,1.0,43,0.00,,,-99.99,,2013-05-06 01:11:00,
2013-05-05 21:21:00,62.0,39.0,-100.00,NW,325,0.0,2.0,42,0.00,,,-99.99,,2013-05-06 01:21:00,
2013-05-05 21:32:00,63.0,38.0,-100.00,NW,325,0.0,3.0,39,0.00,,,-99.99,,2013-05-06 01:32:00,
2013-05-05 21:42:00,63.0,37.0,-100.00,NNW,345,1.0,2.0,37,0.00,,,-99.99,,2013-05-06 01:42:00,
2013-05-05 21:52:00,63.0,38.0,-100.00,NE,40,0.0,3.0,38,0.00,,,-99.99,,2013-05-06 01:52:00,
2013-05-05 22:02:00,63.0,37.0,-100.00,NNE,15,1.0,4.0,38,0.00,,,-99.99,,2013-05-06 02:02:00,
2013-05-05 22:12:00,64.0,35.0,-100.00,NNE,25,1.0,5.0,35,0.00,,,-99.99,,2013-05-06 02:12:00,
2013-05-05 22:21:00,63.0,37.0,-100.00,ENE,60,1.0,6.0,36,0.00,,,-99.99,,2013-05-06 02:21:00,
2013-05-05 22:32:00,63.0,35.0,-100.00,NE,45,3.0,6.0,35,0.00,,,-99.99,,2013-05-06 02:32:00,
2013-05-05 22:42:00,63.0,34.0,-100.00,ENE,60,2.0,6.0,34,0.00,,,-99.99,,2013-05-06 02:42:00,
2013-05-05 22:51:00,63.0,35.0,-100.00,NE,45,2.0,7.0,34,0.00,,,-99.99,,2013-05-06 02:51:00,
2013-05-05 23:02:00,63.0,33.0,-100.00,NNW,340,2.0,7.0,32,0.00,,,-99.99,,2013-05-06 03:02:00,
2013-05-05 23:11:00,63.0,33.0,-100.00,NNW,340,2.0,7.0,32,0.00,,,-99.99,,2013-05-06 03:11:00,
2013-05-05 23:22:00,63.0,33.0,-100.00,North,0,3.0,9.0,33,0.00,,,-99.99,,2013-05-06 03:22:00,
2013-05-05 23:33:00,62.0,33.0,-100.00,NE,35,2.0,10.0,32,0.00,,,-99.99,,2013-05-06 03:33:00,
2013-05-05 23:42:00,62.0,33.0,-100.00,NNE,25,3.0,8.0,33,0.00,,,-99.99,,2013-05-06 03:42:00,
2013-05-05 23:53:00,62.0,33.0,-100.00,North,5,2.0,6.0,33,0.00,,,-99.99,,2013-05-06 03:53:00,